Time,TemperatureF,DewpointF,PressureIn,WindDirection,WindDirectionDegrees,WindSpeedMPH,WindSpeedGustMPH,Humidity,HourlyPrecipIn,Conditions,Clouds,dailyrainin,SoftwareType,DateUTC
2013-10-11 00:00:00,64.0,62.5,29.82,WNW,286,12.0,13.0,95,0.00,,,0.01,Wunderground v.1.15,2013-10-11 04:00:00,
2013-10-11 00:01:00,64.0,62.5,29.82,WNW,289,9.0,13.0,95,0.00,,,0.01,Wunderground v.1.15,2013-10-11 04:01:00,
2013-10-11 00:06:00,64.0,62.5,29.81,NW,311,11.0,16.0,95,0.00,,,0.01,Wunderground v.1.15,2013-10-11 04:06:00,
2013-10-11 00:11:00,64.0,62.5,29.81,WNW,301,7.0,13.0,95,0.00,,,0.01,Wunderground v.1.15,2013-10-11 04:11:00,
2013-10-11 00:16:00,64.0,62.5,29.81,WNW,292,11.0,15.0,95,0.00,,,0.01,Wunderground v.1.15,2013-10-11 04:16:00,
2013-10-11 00:21:00,63.7,62.2,29.81,WNW,284,10.0,14.0,95,0.00,,,0.01,Wunderground v.1.15,2013-10-11 04:21:00,
2013-10-11 00:26:00,63.8,62.6,29.81,WNW,288,8.0,14.0,96,0.00,,,0.01,Wunderground v.1.15,2013-10-11 04:26:00,
2013-10-11 00:31:00,63.6,62.4,29.80,WNW,296,8.0,13.0,96,0.00,,,0.01,Wunderground v.1.15,2013-10-11 04:31:00,
2013-10-11 00:36:00,63.5,62.3,29.80,NW,304,12.0,17.0,96,0.00,,,0.01,Wunderground v.1.15,2013-10-11 04:36:00,
2013-10-11 00:41:00,63.6,62.4,29.80,WNW,295,16.0,16.0,96,0.00,,,0.01,Wunderground v.1.15,2013-10-11 04:41:00,
2013-10-11 00:46:00,63.4,62.2,29.80,WNW,300,7.0,16.0,96,0.00,,,0.01,Wunderground v.1.15,2013-10-11 04:46:00,
2013-10-11 00:51:00,63.5,62.3,29.80,WNW,297,11.0,16.0,96,0.00,,,0.01,Wunderground v.1.15,2013-10-11 04:51:00,
2013-10-11 00:56:00,63.6,62.4,29.80,WNW,290,15.0,16.0,96,0.00,,,0.01,Wunderground v.1.15,2013-10-11 04:56:00,
2013-10-11 01:01:00,63.6,62.4,29.80,NW,306,10.0,15.0,96,0.00,,,0.01,Wunderground v.1.15,2013-10-11 05:01:00,
2013-10-11 01:06:00,63.6,62.4,29.80,WNW,282,10.0,15.0,96,0.00,,,0.01,Wunderground v.1.15,2013-10-11 05:06:00,
2013-10-11 01:11:00,63.5,62.3,29.80,WNW,290,10.0,14.0,96,0.00,,,0.01,Wunderground v.1.15,2013-10-11 05:11:00,
2013-10-11 01:16:00,63.5,62.3,29.80,WNW,287,9.0,15.0,96,0.00,,,0.01,Wunderground v.1.15,2013-10-11 05:16:00,
2013-10-11 01:21:00,63.6,62.4,29.80,WNW,286,13.0,13.0,96,0.00,,,0.01,Wunderground v.1.15,2013-10-11 05:21:00,
2013-10-11 01:26:00,63.7,62.5,29.80,WNW,297,8.0,13.0,96,0.00,,,0.01,Wunderground v.1.15,2013-10-11 05:26:00,
2013-10-11 01:31:00,63.6,62.4,29.80,NW,311,11.0,12.0,96,0.00,,,0.01,Wunderground v.1.15,2013-10-11 05:31:00,
2013-10-11 01:36:00,63.6,62.4,29.80,WNW,292,9.0,14.0,96,0.00,,,0.01,Wunderground v.1.15,2013-10-11 05:36:00,
2013-10-11 01:41:00,63.6,62.4,29.80,WNW,299,9.0,13.0,96,0.00,,,0.01,Wunderground v.1.15,2013-10-11 05:41:00,
2013-10-11 01:46:00,63.7,62.5,29.80,WNW,287,8.0,14.0,96,0.00,,,0.01,Wunderground v.1.15,2013-10-11 05:46:00,
2013-10-11 01:51:00,63.7,62.5,29.79,WNW,285,11.0,13.0,96,0.00,,,0.01,Wunderground v.1.15,2013-10-11 05:51:00,
2013-10-11 01:56:00,63.7,62.5,29.80,WNW,300,9.0,14.0,96,0.00,,,0.01,Wunderground v.1.15,2013-10-11 05:56:00,
2013-10-11 02:01:00,63.7,62.5,29.80,West,280,14.0,14.0,96,0.00,,,0.01,Wunderground v.1.15,2013-10-11 06:01:00,
2013-10-11 02:06:00,63.7,62.5,29.80,WNW,292,10.0,14.0,96,0.00,,,0.01,Wunderground v.1.15,2013-10-11 06:06:00,
2013-10-11 02:11:00,63.8,62.9,29.80,WNW,303,10.0,12.0,97,0.00,,,0.01,Wunderground v.1.15,2013-10-11 06:11:00,
2013-10-11 02:16:00,63.7,62.5,29.80,NW,304,10.0,17.0,96,0.00,,,0.01,Wunderground v.1.15,2013-10-11 06:16:00,
2013-10-11 02:21:00,63.8,62.9,29.80,WNW,302,4.0,11.0,97,0.00,,,0.01,Wunderground v.1.15,2013-10-11 06:21:00,
2013-10-11 02:26:00,63.9,63.0,29.80,WNW,286,9.0,15.0,97,0.00,,,0.01,Wunderground v.1.15,2013-10-11 06:26:00,
2013-10-11 02:31:00,63.8,62.9,29.80,WNW,296,8.0,14.0,97,0.00,,,0.01,Wunderground v.1.15,2013-10-11 06:31:00,
2013-10-11 02:36:00,63.8,62.9,29.80,NW,314,13.0,16.0,97,0.00,,,0.01,Wunderground v.1.15,2013-10-11 06:36:00,
2013-10-11 02:41:00,63.8,62.9,29.80,WNW,288,7.0,13.0,97,0.00,,,0.01,Wunderground v.1.15,2013-10-11 06:41:00,
2013-10-11 02:46:00,63.8,62.9,29.80,WNW,296,13.0,16.0,97,0.00,,,0.01,Wunderground v.1.15,2013-10-11 06:46:00,
2013-10-11 02:51:00,63.9,63.0,29.80,WNW,292,12.0,14.0,97,0.00,,,0.01,Wunderground v.1.15,2013-10-11 06:51:00,
2013-10-11 02:56:00,63.8,62.9,29.80,NW,313,16.0,17.0,97,0.00,,,0.01,Wunderground v.1.15,2013-10-11 06:56:00,
2013-10-11 03:01:00,63.7,62.8,29.80,NW,304,7.0,12.0,97,0.00,,,0.01,Wunderground v.1.15,2013-10-11 07:01:00,
2013-10-11 03:06:00,63.8,62.9,29.79,WNW,292,10.0,16.0,97,0.00,,,0.01,Wunderground v.1.15,2013-10-11 07:06:00,
2013-10-11 03:11:00,63.7,62.8,29.79,WNW,295,9.0,16.0,97,0.00,,,0.01,Wunderground v.1.15,2013-10-11 07:11:00,
2013-10-11 03:16:00,63.6,62.7,29.79,WNW,303,11.0,16.0,97,0.00,,,0.01,Wunderground v.1.15,2013-10-11 07:16:00,
2013-10-11 03:21:00,63.6,62.7,29.79,WNW,286,14.0,15.0,97,0.00,,,0.01,Wunderground v.1.15,2013-10-11 07:21:00,
2013-10-11 09:03:00,64.0,63.1,29.86,NW,313,4.0,4.0,97,0.00,,,0.02,Wunderground v.1.15,2013-10-11 13:03:00,
2013-10-11 09:08:00,63.8,62.9,29.87,NW,319,10.0,13.0,97,0.00,,,0.02,Wunderground v.1.15,2013-10-11 13:08:00,
2013-10-11 09:13:00,63.9,63.0,29.87,NW,314,11.0,14.0,97,0.00,,,0.02,Wunderground v.1.15,2013-10-11 13:13:00,
2013-10-11 09:18:00,63.8,62.9,29.87,NW,312,11.0,14.0,97,0.00,,,0.02,Wunderground v.1.15,2013-10-11 13:18:00,
2013-10-11 09:23:00,63.9,63.0,29.86,NW,323,9.0,13.0,97,0.00,,,0.02,Wunderground v.1.15,2013-10-11 13:23:00,
2013-10-11 09:28:00,64.0,63.1,29.86,NW,310,9.0,13.0,97,0.00,,,0.02,Wunderground v.1.15,2013-10-11 13:28:00,
2013-10-11 09:33:00,64.0,62.8,29.87,WNW,302,12.0,15.0,96,0.00,,,0.02,Wunderground v.1.15,2013-10-11 13:33:00,
2013-10-11 09:38:00,63.9,62.7,29.87,WNW,296,15.0,15.0,96,0.00,,,0.02,Wunderground v.1.15,2013-10-11 13:38:00,
2013-10-11 09:43:00,63.9,62.7,29.87,NW,313,8.0,14.0,96,0.00,,,0.02,Wunderground v.1.15,2013-10-11 13:43:00,
2013-10-11 09:48:00,63.9,62.7,29.87,NW,309,10.0,15.0,96,0.00,,,0.02,Wunderground v.1.15,2013-10-11 13:48:00,
2013-10-11 09:53:00,64.0,62.8,29.87,NW,315,8.0,15.0,96,0.00,,,0.02,Wunderground v.1.15,2013-10-11 13:53:00,
2013-10-11 09:58:00,64.1,62.9,29.87,NW,320,11.0,15.0,96,0.00,,,0.02,Wunderground v.1.15,2013-10-11 13:58:00,
2013-10-11 10:03:00,64.1,62.9,29.87,NW,317,8.0,16.0,96,0.00,,,0.02,Wunderground v.1.15,2013-10-11 14:03:00,
2013-10-11 10:08:00,64.1,62.9,29.87,NW,306,8.0,16.0,96,0.00,,,0.02,Wunderground v.1.15,2013-10-11 14:08:00,
2013-10-11 10:13:00,64.2,63.0,29.87,NW,311,13.0,15.0,96,0.00,,,0.02,Wunderground v.1.15,2013-10-11 14:13:00,
2013-10-11 10:18:00,64.3,63.1,29.87,NW,304,11.0,15.0,96,0.00,,,0.02,Wunderground v.1.15,2013-10-11 14:18:00,
2013-10-11 10:23:00,64.1,62.6,29.87,NW,313,8.0,14.0,95,0.00,,,0.02,Wunderground v.1.15,2013-10-11 14:23:00,
2013-10-11 10:28:00,64.2,62.7,29.87,NW,313,10.0,15.0,95,0.00,,,0.02,Wunderground v.1.15,2013-10-11 14:28:00,
2013-10-11 10:33:00,64.3,63.1,29.87,NW,305,7.0,14.0,96,0.00,,,0.02,Wunderground v.1.15,2013-10-11 14:33:00,
2013-10-11 10:38:00,64.3,63.1,29.87,NW,309,11.0,14.0,96,0.00,,,0.02,Wunderground v.1.15,2013-10-11 14:38:00,
2013-10-11 10:43:00,64.2,63.0,29.87,NW,313,11.0,14.0,96,0.00,,,0.02,Wunderground v.1.15,2013-10-11 14:43:00,
2013-10-11 10:48:00,64.3,62.8,29.87,WNW,301,12.0,16.0,95,0.00,,,0.02,Wunderground v.1.15,2013-10-11 14:48:00,
2013-10-11 10:53:00,64.4,62.9,29.87,NW,315,9.0,16.0,95,0.00,,,0.02,Wunderground v.1.15,2013-10-11 14:53:00,
2013-10-11 10:58:00,64.6,63.1,29.87,NW,311,12.0,16.0,95,0.00,,,0.02,Wunderground v.1.15,2013-10-11 14:58:00,
2013-10-11 11:03:00,64.7,63.2,29.87,NW,319,4.0,13.0,95,0.00,,,0.02,Wunderground v.1.15,2013-10-11 15:03:00,
2013-10-11 11:09:00,64.7,63.2,29.87,NW,306,5.0,16.0,95,0.00,,,0.02,Wunderground v.1.15,2013-10-11 15:09:00,
2013-10-11 11:14:00,64.9,63.4,29.87,NW,318,6.0,11.0,95,0.00,,,0.02,Wunderground v.1.15,2013-10-11 15:14:00,
2013-10-11 11:19:00,64.8,63.3,29.87,NW,319,9.0,13.0,95,0.00,,,0.02,Wunderground v.1.15,2013-10-11 15:19:00,
2013-10-11 11:24:00,64.8,63.3,29.87,NW,315,11.0,14.0,95,0.00,,,0.02,Wunderground v.1.15,2013-10-11 15:24:00,
2013-10-11 11:29:00,64.9,63.4,29.87,NW,318,4.0,14.0,95,0.00,,,0.02,Wunderground v.1.15,2013-10-11 15:29:00,
2013-10-11 11:34:00,65.0,63.2,29.87,NW,315,4.0,12.0,94,0.00,,,0.02,Wunderground v.1.15,2013-10-11 15:34:00,
2013-10-11 11:39:00,65.0,63.2,29.87,NW,323,9.0,14.0,94,0.00,,,0.02,Wunderground v.1.15,2013-10-11 15:39:00,
2013-10-11 11:44:00,64.9,63.1,29.87,NW,316,5.0,13.0,94,0.00,,,0.02,Wunderground v.1.15,2013-10-11 15:44:00,
2013-10-11 11:49:00,65.0,63.5,29.87,NW,317,9.0,14.0,95,0.00,,,0.02,Wunderground v.1.15,2013-10-11 15:49:00,
2013-10-11 11:54:00,64.9,63.1,29.87,NNW,327,10.0,14.0,94,0.00,,,0.02,Wunderground v.1.15,2013-10-11 15:54:00,
2013-10-11 11:59:00,65.0,63.2,29.87,NW,315,5.0,14.0,94,0.00,,,0.02,Wunderground v.1.15,2013-10-11 15:59:00,
2013-10-11 12:04:00,65.0,63.2,29.87,NNW,328,9.0,13.0,94,0.00,,,0.02,Wunderground v.1.15,2013-10-11 16:04:00,
2013-10-11 12:09:00,65.1,63.3,29.87,NNW,327,11.0,13.0,94,0.00,,,0.02,Wunderground v.1.15,2013-10-11 16:09:00,
2013-10-11 12:14:00,65.1,63.3,29.87,NNW,328,9.0,13.0,94,0.00,,,0.02,Wunderground v.1.15,2013-10-11 16:14:00,
2013-10-11 12:19:00,65.0,63.2,29.87,NNW,337,14.0,15.0,94,0.00,,,0.00,Wunderground v.1.15,2013-10-11 16:19:00,
2013-10-11 12:24:00,65.1,63.3,29.87,NW,312,6.0,12.0,94,0.00,,,0.00,Wunderground v.1.15,2013-10-11 16:24:00,
2013-10-11 12:29:00,65.2,63.4,29.87,NW,310,9.0,13.0,94,0.00,,,0.00,Wunderground v.1.15,2013-10-11 16:29:00,
2013-10-11 12:34:00,65.1,63.3,29.87,NNW,327,10.0,14.0,94,0.00,,,0.00,Wunderground v.1.15,2013-10-11 16:34:00,
2013-10-11 12:39:00,65.0,63.2,29.87,NNW,333,11.0,16.0,94,0.00,,,0.00,Wunderground v.1.15,2013-10-11 16:39:00,
2013-10-11 12:44:00,65.0,63.2,29.87,NW,313,11.0,13.0,94,0.00,,,0.00,Wunderground v.1.15,2013-10-11 16:44:00,
2013-10-11 12:49:00,65.0,63.2,29.87,NW,323,10.0,16.0,94,0.00,,,0.00,Wunderground v.1.15,2013-10-11 16:49:00,
2013-10-11 12:54:00,64.9,63.1,29.86,NNW,331,11.0,15.0,94,0.00,,,0.00,Wunderground v.1.15,2013-10-11 16:54:00,
2013-10-11 12:59:00,65.0,63.2,29.87,NNW,329,8.0,15.0,94,0.00,,,0.00,Wunderground v.1.15,2013-10-11 16:59:00,
2013-10-11 13:04:00,64.9,63.1,29.87,NW,317,8.0,14.0,94,0.00,,,0.00,Wunderground v.1.15,2013-10-11 17:04:00,
2013-10-11 13:10:00,65.0,63.2,29.86,NW,315,9.0,14.0,94,0.00,,,0.00,Wunderground v.1.15,2013-10-11 17:10:00,
2013-10-11 13:14:00,64.9,63.1,29.86,NNW,333,8.0,16.0,94,0.00,,,0.00,Wunderground v.1.15,2013-10-11 17:14:00,
2013-10-11 13:19:00,65.0,63.2,29.86,NNW,331,9.0,16.0,94,0.00,,,0.00,Wunderground v.1.15,2013-10-11 17:19:00,
2013-10-11 13:24:00,65.0,63.2,29.86,NNW,331,11.0,16.0,94,0.00,,,0.00,Wunderground v.1.15,2013-10-11 17:24:00,
2013-10-11 13:30:00,64.9,63.1,29.86,NNW,327,9.0,16.0,94,0.00,,,0.00,Wunderground v.1.15,2013-10-11 17:30:00,
2013-10-11 13:35:00,65.0,63.2,29.86,NW,324,10.0,15.0,94,0.00,,,0.00,Wunderground v.1.15,2013-10-11 17:35:00,
2013-10-11 13:40:00,65.1,63.3,29.86,NW,321,12.0,15.0,94,0.00,,,0.00,Wunderground v.1.15,2013-10-11 17:40:00,
2013-10-11 13:45:00,65.1,63.3,29.86,NW,316,9.0,14.0,94,0.00,,,0.00,Wunderground v.1.15,2013-10-11 17:45:00,
2013-10-11 13:50:00,65.2,63.4,29.86,NNW,328,16.0,16.0,94,0.00,,,0.00,Wunderground v.1.15,2013-10-11 17:50:00,
2013-10-11 13:55:00,65.1,63.3,29.86,NW,325,10.0,17.0,94,0.00,,,0.00,Wunderground v.1.15,2013-10-11 17:55:00,
2013-10-11 14:00:00,65.1,63.3,29.86,NNW,331,11.0,12.0,94,0.00,,,0.00,Wunderground v.1.15,2013-10-11 18:00:00,
2013-10-11 14:05:00,65.1,63.3,29.86,NNW,330,11.0,16.0,94,0.00,,,0.00,Wunderground v.1.15,2013-10-11 18:05:00,
2013-10-11 14:10:00,65.1,63.3,29.86,NNW,331,14.0,16.0,94,0.00,,,0.00,Wunderground v.1.15,2013-10-11 18:10:00,
2013-10-11 14:15:00,65.1,63.3,29.85,NNW,334,11.0,16.0,94,0.00,,,0.00,Wunderground v.1.15,2013-10-11 18:15:00,
2013-10-11 14:20:00,65.2,63.4,29.85,NNW,327,10.0,12.0,94,0.00,,,0.00,Wunderground v.1.15,2013-10-11 18:20:00,
2013-10-11 14:25:00,65.3,63.5,29.85,NNW,331,10.0,15.0,94,0.00,,,0.00,Wunderground v.1.15,2013-10-11 18:25:00,
2013-10-11 14:30:00,65.3,63.5,29.85,NW,321,8.0,13.0,94,0.00,,,0.00,Wunderground v.1.15,2013-10-11 18:30:00,
2013-10-11 14:35:00,65.3,63.5,29.85,NW,326,11.0,13.0,94,0.00,,,0.00,Wunderground v.1.15,2013-10-11 18:35:00,
2013-10-11 14:40:00,65.4,63.6,29.85,NNW,332,6.0,9.0,94,0.00,,,0.00,Wunderground v.1.15,2013-10-11 18:40:00,
2013-10-11 14:45:00,65.4,63.6,29.85,NW,325,11.0,15.0,94,0.00,,,0.00,Wunderground v.1.15,2013-10-11 18:45:00,
2013-10-11 14:50:00,65.5,63.7,29.85,NNW,332,13.0,13.0,94,0.00,,,0.00,Wunderground v.1.15,2013-10-11 18:50:00,
2013-10-11 14:55:00,65.5,63.7,29.85,NNW,327,11.0,14.0,94,0.00,,,0.00,Wunderground v.1.15,2013-10-11 18:55:00,
2013-10-11 15:00:00,65.5,63.7,29.85,NNW,328,12.0,12.0,94,0.00,,,0.00,Wunderground v.1.15,2013-10-11 19:00:00,
2013-10-11 15:05:00,65.6,63.5,29.85,NW,317,14.0,17.0,93,0.00,,,0.00,Wunderground v.1.15,2013-10-11 19:05:00,
2013-10-11 15:10:00,65.6,63.5,29.85,NNW,337,10.0,14.0,93,0.00,,,0.00,Wunderground v.1.15,2013-10-11 19:10:00,
2013-10-11 15:15:00,65.6,63.5,29.85,NNW,329,11.0,17.0,93,0.00,,,0.00,Wunderground v.1.15,2013-10-11 19:15:00,
2013-10-11 15:20:00,65.6,63.5,29.85,NW,317,10.0,12.0,93,0.00,,,0.00,Wunderground v.1.15,2013-10-11 19:20:00,
2013-10-11 15:25:00,65.5,63.7,29.85,NNW,329,9.0,15.0,94,0.00,,,0.00,Wunderground v.1.15,2013-10-11 19:25:00,
2013-10-11 15:30:00,65.4,63.3,29.84,NW,312,8.0,11.0,93,0.00,,,0.00,Wunderground v.1.15,2013-10-11 19:30:00,
2013-10-11 15:35:00,65.6,63.5,29.84,NW,311,5.0,14.0,93,0.00,,,0.00,Wunderground v.1.15,2013-10-11 19:35:00,
2013-10-11 15:40:00,65.8,63.7,29.84,NW,317,10.0,12.0,93,0.00,,,0.00,Wunderground v.1.15,2013-10-11 19:40:00,
2013-10-11 15:45:00,65.9,63.8,29.84,NNW,331,10.0,14.0,93,0.00,,,0.00,Wunderground v.1.15,2013-10-11 19:45:00,
2013-10-11 15:50:00,65.8,63.7,29.84,NW,312,6.0,12.0,93,0.00,,,0.00,Wunderground v.1.15,2013-10-11 19:50:00,
2013-10-11 15:55:00,65.8,63.7,29.84,NW,317,9.0,15.0,93,0.00,,,0.00,Wunderground v.1.15,2013-10-11 19:55:00,
2013-10-11 16:00:00,65.8,63.7,29.84,NNW,335,9.0,11.0,93,0.00,,,0.00,Wunderground v.1.15,2013-10-11 20:00:00,
2013-10-11 16:05:00,65.7,63.6,29.85,NW,322,10.0,15.0,93,0.00,,,0.00,Wunderground v.1.15,2013-10-11 20:05:00,
2013-10-11 16:10:00,65.8,63.7,29.84,NW,316,8.0,11.0,93,0.00,,,0.00,Wunderground v.1.15,2013-10-11 20:10:00,
2013-10-11 16:15:00,65.7,63.6,29.85,NW,319,11.0,13.0,93,0.00,,,0.00,Wunderground v.1.15,2013-10-11 20:15:00,
2013-10-11 16:20:00,65.7,63.6,29.85,NW,315,9.0,10.0,93,0.00,,,0.00,Wunderground v.1.15,2013-10-11 20:20:00,
2013-10-11 16:25:00,65.8,63.7,29.85,NNW,338,10.0,13.0,93,0.00,,,0.00,Wunderground v.1.15,2013-10-11 20:25:00,
2013-10-11 16:30:00,65.8,63.7,29.85,NW,324,9.0,12.0,93,0.00,,,0.00,Wunderground v.1.15,2013-10-11 20:30:00,
2013-10-11 16:35:00,65.8,63.7,29.85,NW,319,5.0,12.0,93,0.00,,,0.00,Wunderground v.1.15,2013-10-11 20:35:00,
2013-10-11 16:40:00,66.0,63.9,29.85,NNW,329,11.0,11.0,93,0.00,,,0.00,Wunderground v.1.15,2013-10-11 20:40:00,
2013-10-11 16:45:00,66.0,63.9,29.85,NNW,339,8.0,15.0,93,0.00,,,0.00,Wunderground v.1.15,2013-10-11 20:45:00,
2013-10-11 16:50:00,66.0,63.9,29.85,NNW,333,5.0,10.0,93,0.00,,,0.00,Wunderground v.1.15,2013-10-11 20:50:00,
2013-10-11 16:55:00,66.0,63.9,29.86,NNW,330,6.0,12.0,93,0.00,,,0.00,Wunderground v.1.15,2013-10-11 20:55:00,
2013-10-11 17:00:00,66.2,64.1,29.85,NNW,329,5.0,9.0,93,0.00,,,0.00,Wunderground v.1.15,2013-10-11 21:00:00,
2013-10-11 17:05:00,66.2,63.8,29.85,NW,319,9.0,12.0,92,0.00,,,0.00,Wunderground v.1.15,2013-10-11 21:05:00,
2013-10-11 17:10:00,66.2,64.1,29.85,NNW,331,10.0,13.0,93,0.00,,,0.00,Wunderground v.1.15,2013-10-11 21:10:00,
2013-10-11 17:15:00,66.3,63.9,29.85,NNW,329,12.0,13.0,92,0.00,,,0.00,Wunderground v.1.15,2013-10-11 21:15:00,
2013-10-11 17:20:00,66.2,63.8,29.85,NNW,329,13.0,13.0,92,0.00,,,0.00,Wunderground v.1.15,2013-10-11 21:20:00,
2013-10-11 17:25:00,66.4,64.0,29.85,NNW,333,10.0,14.0,92,0.00,,,0.00,Wunderground v.1.15,2013-10-11 21:25:00,
2013-10-11 17:30:00,66.4,64.0,29.85,NNW,338,8.0,12.0,92,0.00,,,0.00,Wunderground v.1.15,2013-10-11 21:30:00,
2013-10-11 17:35:00,66.4,64.0,29.85,NNW,338,6.0,15.0,92,0.00,,,0.00,Wunderground v.1.15,2013-10-11 21:35:00,
2013-10-11 17:40:00,66.5,63.8,29.85,NNW,336,9.0,10.0,91,0.00,,,0.00,Wunderground v.1.15,2013-10-11 21:40:00,
2013-10-11 17:45:00,66.6,63.9,29.85,NNW,338,10.0,13.0,91,0.00,,,0.00,Wunderground v.1.15,2013-10-11 21:45:00,
2013-10-11 17:50:00,66.5,63.8,29.85,NNW,329,9.0,14.0,91,0.00,,,0.00,Wunderground v.1.15,2013-10-11 21:50:00,
2013-10-11 17:55:00,66.6,64.2,29.85,NNW,332,14.0,14.0,92,0.00,,,0.00,Wunderground v.1.15,2013-10-11 21:55:00,
2013-10-11 18:00:00,66.7,64.3,29.85,NNW,332,9.0,11.0,92,0.00,,,0.00,Wunderground v.1.15,2013-10-11 22:00:00,
2013-10-11 18:05:00,66.6,64.2,29.86,NNW,339,10.0,15.0,92,0.00,,,0.00,Wunderground v.1.15,2013-10-11 22:05:00,
2013-10-11 18:10:00,66.7,64.0,29.86,NNW,331,10.0,14.0,91,0.00,,,0.00,Wunderground v.1.15,2013-10-11 22:10:00,
2013-10-11 18:15:00,66.6,63.9,29.86,NNW,335,11.0,14.0,91,0.00,,,0.00,Wunderground v.1.15,2013-10-11 22:15:00,
2013-10-11 18:20:00,66.7,64.0,29.86,NNW,335,13.0,13.0,91,0.00,,,0.00,Wunderground v.1.15,2013-10-11 22:20:00,
2013-10-11 18:25:00,66.6,63.9,29.86,NNW,328,9.0,13.0,91,0.00,,,0.00,Wunderground v.1.15,2013-10-11 22:25:00,
2013-10-11 18:30:00,66.5,64.1,29.86,NNW,336,11.0,13.0,92,0.00,,,0.00,Wunderground v.1.15,2013-10-11 22:30:00,
2013-10-11 18:35:00,66.6,64.2,29.87,NNW,327,11.0,13.0,92,0.00,,,0.00,Wunderground v.1.15,2013-10-11 22:35:00,
2013-10-11 18:40:00,66.6,64.2,29.87,NNW,335,6.0,9.0,92,0.00,,,0.00,Wunderground v.1.15,2013-10-11 22:40:00,
2013-10-11 18:45:00,66.6,64.2,29.87,NNW,337,10.0,13.0,92,0.00,,,0.00,Wunderground v.1.15,2013-10-11 22:45:00,
2013-10-11 18:50:00,66.7,64.3,29.87,NNW,342,8.0,9.0,92,0.00,,,0.00,Wunderground v.1.15,2013-10-11 22:50:00,
2013-10-11 18:55:00,66.7,64.3,29.87,NNW,346,11.0,15.0,92,0.00,,,0.00,Wunderground v.1.15,2013-10-11 22:55:00,
2013-10-11 19:00:00,66.6,64.2,29.87,NNW,343,10.0,10.0,92,0.00,,,0.00,Wunderground v.1.15,2013-10-11 23:00:00,
2013-10-11 19:05:00,66.6,64.2,29.87,NNW,344,11.0,13.0,92,0.00,,,0.00,Wunderground v.1.15,2013-10-11 23:05:00,
2013-10-11 19:10:00,66.6,64.2,29.87,NNW,346,13.0,13.0,92,0.00,,,0.00,Wunderground v.1.15,2013-10-11 23:10:00,
2013-10-11 19:15:00,66.5,64.1,29.87,NNW,340,8.0,14.0,92,0.00,,,0.00,Wunderground v.1.15,2013-10-11 23:15:00,
2013-10-11 19:20:00,66.5,64.1,29.87,NNW,338,10.0,10.0,92,0.00,,,0.00,Wunderground v.1.15,2013-10-11 23:20:00,
2013-10-11 19:25:00,66.4,64.0,29.87,NNW,343,5.0,14.0,92,0.00,,,0.00,Wunderground v.1.15,2013-10-11 23:25:00,
2013-10-11 19:30:00,66.5,64.1,29.88,NNW,348,10.0,10.0,92,0.00,,,0.00,Wunderground v.1.15,2013-10-11 23:30:00,
2013-10-11 19:35:00,66.5,64.1,29.88,NNW,346,10.0,13.0,92,0.00,,,0.00,Wunderground v.1.15,2013-10-11 23:35:00,
2013-10-11 19:40:00,66.5,64.1,29.88,North,350,11.0,11.0,92,0.00,,,0.00,Wunderground v.1.15,2013-10-11 23:40:00,
2013-10-11 19:45:00,66.6,64.2,29.88,NNW,348,11.0,13.0,92,0.00,,,0.00,Wunderground v.1.15,2013-10-11 23:45:00,
2013-10-11 19:50:00,66.6,64.2,29.88,NNW,345,6.0,11.0,92,0.00,,,0.00,Wunderground v.1.15,2013-10-11 23:50:00,
2013-10-11 19:55:00,66.5,64.1,29.88,NNW,333,8.0,11.0,92,0.00,,,0.00,Wunderground v.1.15,2013-10-11 23:55:00,
2013-10-11 20:00:00,66.5,64.1,29.88,NNW,332,10.0,10.0,92,0.00,,,0.00,Wunderground v.1.15,2013-10-12 00:00:00,
2013-10-11 20:05:00,66.3,63.9,29.88,NNW,343,8.0,12.0,92,0.00,,,0.00,Wunderground v.1.15,2013-10-12 00:05:00,
2013-10-11 20:10:00,66.3,63.9,29.88,NNW,343,6.0,7.0,92,0.00,,,0.00,Wunderground v.1.15,2013-10-12 00:10:00,
2013-10-11 20:15:00,66.3,63.9,29.88,NNW,346,6.0,11.0,92,0.00,,,0.00,Wunderground v.1.15,2013-10-12 00:15:00,
2013-10-11 20:20:00,66.5,64.1,29.88,NNW,347,11.0,11.0,92,0.00,,,0.00,Wunderground v.1.15,2013-10-12 00:20:00,
2013-10-11 20:25:00,66.5,64.1,29.88,NNW,344,13.0,13.0,92,0.00,,,0.00,Wunderground v.1.15,2013-10-12 00:25:00,
2013-10-11 20:30:00,66.5,64.1,29.88,NNW,342,10.0,10.0,92,0.00,,,0.00,Wunderground v.1.15,2013-10-12 00:30:00,
2013-10-11 20:35:00,66.5,64.1,29.88,NNW,340,6.0,14.0,92,0.00,,,0.00,Wunderground v.1.15,2013-10-12 00:35:00,
2013-10-11 20:40:00,66.5,64.1,29.88,NNW,346,10.0,11.0,92,0.00,,,0.00,Wunderground v.1.15,2013-10-12 00:40:00,
2013-10-11 20:45:00,66.5,64.4,29.89,NNW,346,11.0,14.0,93,0.00,,,0.00,Wunderground v.1.15,2013-10-12 00:45:00,
2013-10-11 20:50:00,66.6,64.2,29.88,North,350,10.0,10.0,92,0.00,,,0.00,Wunderground v.1.15,2013-10-12 00:50:00,
2013-10-11 20:55:00,66.3,63.9,29.89,North,351,9.0,14.0,92,0.00,,,0.00,Wunderground v.1.15,2013-10-12 00:55:00,
2013-10-11 21:00:00,66.3,63.9,29.89,NNW,342,5.0,10.0,92,0.00,,,0.00,Wunderground v.1.15,2013-10-12 01:00:00,
2013-10-11 21:05:00,66.3,63.9,29.89,NNW,348,10.0,14.0,92,0.00,,,0.00,Wunderground v.1.15,2013-10-12 01:05:00,
2013-10-11 21:10:00,66.3,64.2,29.89,North,350,10.0,15.0,93,0.00,,,0.00,Wunderground v.1.15,2013-10-12 01:10:00,
2013-10-11 21:15:00,66.3,64.2,29.89,North,355,11.0,15.0,93,0.00,,,0.00,Wunderground v.1.15,2013-10-12 01:15:00,
2013-10-11 21:20:00,66.2,64.1,29.89,North,355,13.0,15.0,93,0.00,,,0.00,Wunderground v.1.15,2013-10-12 01:20:00,
2013-10-11 21:25:00,66.2,64.1,29.89,NNW,346,8.0,15.0,93,0.00,,,0.00,Wunderground v.1.15,2013-10-12 01:25:00,
2013-10-11 21:30:00,66.0,63.9,29.89,North,355,11.0,16.0,93,0.00,,,0.00,Wunderground v.1.15,2013-10-12 01:30:00,
2013-10-11 21:35:00,65.7,63.9,29.90,NNW,348,12.0,16.0,94,0.00,,,0.00,Wunderground v.1.15,2013-10-12 01:35:00,
2013-10-11 21:40:00,65.7,63.9,29.90,North,355,12.0,16.0,94,0.00,,,0.00,Wunderground v.1.15,2013-10-12 01:40:00,
2013-10-11 21:45:00,65.5,64.0,29.90,North,349,10.0,14.0,95,0.00,,,0.00,Wunderground v.1.15,2013-10-12 01:45:00,
2013-10-11 21:50:00,65.4,63.6,29.90,North,349,10.0,15.0,94,0.00,,,0.00,Wunderground v.1.15,2013-10-12 01:50:00,
2013-10-11 21:55:00,65.6,64.1,29.90,North,355,12.0,14.0,95,0.00,,,0.00,Wunderground v.1.15,2013-10-12 01:55:00,
2013-10-11 22:00:00,65.4,63.6,29.90,North,360,11.0,15.0,94,0.00,,,0.00,Wunderground v.1.15,2013-10-12 02:00:00,
2013-10-11 22:05:00,65.6,63.8,29.90,North,360,11.0,13.0,94,0.00,,,0.00,Wunderground v.1.15,2013-10-12 02:05:00,
2013-10-11 22:10:00,65.9,64.1,29.90,North,355,13.0,14.0,94,0.00,,,0.00,Wunderground v.1.15,2013-10-12 02:10:00,
2013-10-11 22:15:00,65.9,64.1,29.90,North,360,9.0,13.0,94,0.00,,,0.00,Wunderground v.1.15,2013-10-12 02:15:00,
2013-10-11 22:20:00,65.9,64.1,29.90,North,360,9.0,13.0,94,0.00,,,0.00,Wunderground v.1.15,2013-10-12 02:20:00,
2013-10-11 22:25:00,65.9,63.8,29.90,North,355,11.0,14.0,93,0.00,,,0.00,Wunderground v.1.15,2013-10-12 02:25:00,
2013-10-11 22:30:00,65.7,63.6,29.91,North,355,10.0,14.0,93,0.00,,,0.00,Wunderground v.1.15,2013-10-12 02:30:00,
2013-10-11 22:35:00,65.7,63.6,29.90,North,351,9.0,13.0,93,0.00,,,0.00,Wunderground v.1.15,2013-10-12 02:35:00,
2013-10-11 22:40:00,65.9,63.8,29.91,North,351,11.0,13.0,93,0.00,,,0.00,Wunderground v.1.15,2013-10-12 02:40:00,
2013-10-11 22:45:00,66.0,63.9,29.90,North,349,12.0,13.0,93,0.00,,,0.00,Wunderground v.1.15,2013-10-12 02:45:00,
2013-10-11 22:50:00,65.9,63.8,29.90,North,350,10.0,14.0,93,0.00,,,0.00,Wunderground v.1.15,2013-10-12 02:50:00,
2013-10-11 22:55:00,65.9,63.8,29.90,NNW,347,8.0,12.0,93,0.00,,,0.00,Wunderground v.1.15,2013-10-12 02:55:00,
2013-10-11 23:00:00,65.9,63.8,29.90,NNW,348,8.0,12.0,93,0.00,,,0.00,Wunderground v.1.15,2013-10-12 03:00:00,
2013-10-11 23:05:00,65.9,63.8,29.90,North,351,9.0,12.0,93,0.00,,,0.00,Wunderground v.1.15,2013-10-12 03:05:00,
2013-10-11 23:10:00,66.0,63.9,29.90,North,350,9.0,12.0,93,0.00,,,0.00,Wunderground v.1.15,2013-10-12 03:10:00,
2013-10-11 23:15:00,66.0,63.9,29.90,North,350,8.0,11.0,93,0.00,,,0.00,Wunderground v.1.15,2013-10-12 03:15:00,
2013-10-11 23:20:00,66.1,64.0,29.90,North,350,8.0,11.0,93,0.00,,,0.00,Wunderground v.1.15,2013-10-12 03:20:00,
2013-10-11 23:25:00,66.0,63.6,29.90,North,349,6.0,11.0,92,0.00,,,0.00,Wunderground v.1.15,2013-10-12 03:25:00,
2013-10-11 23:30:00,66.0,63.6,29.90,NNW,347,10.0,11.0,92,0.00,,,0.00,Wunderground v.1.15,2013-10-12 03:30:00,
2013-10-11 23:35:00,66.0,63.6,29.90,NNW,348,10.0,11.0,92,0.00,,,0.00,Wunderground v.1.15,2013-10-12 03:35:00,
2013-10-11 23:40:00,65.9,63.5,29.90,North,355,9.0,14.0,92,0.00,,,0.00,Wunderground v.1.15,2013-10-12 03:40:00,
2013-10-11 23:45:00,65.9,63.8,29.90,North,351,8.0,11.0,93,0.00,,,0.00,Wunderground v.1.15,2013-10-12 03:45:00,
2013-10-11 23:50:00,65.9,63.5,29.90,North,351,9.0,11.0,92,0.00,,,0.00,Wunderground v.1.15,2013-10-12 03:50:00,
2013-10-11 23:55:00,66.0,63.6,29.90,North,351,5.0,12.0,92,0.00,,,0.00,Wunderground v.1.15,2013-10-12 03:55:00,